Satellite: CO-58
Catalog number: 28895
Epoch time:      07178.26785523
Element set:     760
Inclination:      098.1339 deg
RA of node:       074.9288 deg
Eccentricity:    0.0019085
Arg of perigee:   080.8972 deg
Mean anomaly:     279.4372 deg
Mean motion:   14.59562795 rev/day
Decay rate:        2.2e-07 rev/day^2
Epoch rev:            8856
Checksum:              376

Satellite: NCUBE2
Catalog number: 28897
Epoch time:      07178.68427408
Element set:    0289
Inclination:      098.1312 deg
RA of node:       075.2925 deg
Eccentricity:    0.0018311
Arg of perigee:   080.6860 deg
Mean anomaly:     279.6413 deg
Mean motion:   14.59726143 rev/day
Decay rate:        9.9e-07 rev/day^2
Epoch rev:           08090
Checksum:              332

Satellite: NMARS
Catalog number: 29662
Epoch time:      07126.39603970
Element set:     263
Inclination:      051.6121 deg
RA of node:       302.3682 deg
Eccentricity:    0.0004459
Arg of perigee:   252.1654 deg
Mean anomaly:     110.7411 deg
Mean motion:   16.47981436 rev/day
Decay rate:   7.031946e-02 rev/day^2
Epoch rev:            2165
Checksum:              289

Satellite: FCAL
Catalog number: 29667
Epoch time:      07178.96057501
Element set:    0199
Inclination:      051.6337 deg
RA of node:       037.7809 deg
Eccentricity:    0.0014106
Arg of perigee:   031.6768 deg
Mean anomaly:     328.5084 deg
Mean motion:   15.88555221 rev/day
Decay rate:      9.948e-05 rev/day^2
Epoch rev:           02971
Checksum:              336

Satellite: FALCON
Catalog number: 30776
Epoch time:      07178.95061633
Element set:    0085
Inclination:      035.4325 deg
RA of node:       147.4118 deg
Eccentricity:    0.0000783
Arg of perigee:   238.9994 deg
Mean anomaly:     121.0650 deg
Mean motion:   15.02726730 rev/day
Decay rate:       1.53e-06 rev/day^2
Epoch rev:           01667
Checksum:              288

Satellite: MAST
Catalog number: 31126
Epoch time:      07178.79163089
Element set:      67
Inclination:      098.0822 deg
RA of node:       251.5385 deg
Eccentricity:    0.0094920
Arg of perigee:   353.4260 deg
Mean anomaly:     006.5646 deg
Mean motion:   14.53348779 rev/day
Decay rate:       3.93e-06 rev/day^2
Epoch rev:            1039
Checksum:              312

Satellite: CAPE1
Catalog number: 31130
Epoch time:      07178.86483419
Element set:    0059
Inclination:      098.0831 deg
RA of node:       251.4420 deg
Eccentricity:    0.0102543
Arg of perigee:   353.7052 deg
Mean anomaly:     006.2835 deg
Mean motion:   14.51861526 rev/day
Decay rate:       -4.7e-07 rev/day^2
Epoch rev:           01016
Checksum:              269

/EX





More information about the Keps mailing list